�������l�o���
Date,Time,MP-1(��Sv/h),MP-2(��Sv/h),MP-3(��Sv/h),MP-4(��Sv/h),MP-5(��Sv/h),MP-6(��Sv/h),MP-7(��Sv/h),����,����(m/s),���J
2018/02/01,00:00,0.328,0.200,0.326,0.314,0.295,0.167,0.101,�k�k��,5.8,��
2018/02/01,00:10,0.328,0.200,0.328,0.314,0.294,0.166,0.101,�k,6.4,��
2018/02/01,00:20,0.328,0.199,0.327,0.314,0.293,0.167,0.100,�k,4.9,��
2018/02/01,00:30,0.328,0.199,0.327,0.315,0.294,0.167,0.100,�k,5.6,��
2018/02/01,00:40,0.328,0.199,0.329,0.317,0.295,0.166,0.100,�k�k��,5.7,��
2018/02/01,00:50,0.328,0.200,0.327,0.313,0.294,0.167,0.101,�k,5.2,��
2018/02/01,01:00,0.328,0.200,0.328,0.315,0.294,0.166,0.101,�k,5.7,��
2018/02/01,01:10,0.328,0.200,0.328,0.315,0.294,0.167,0.100,�k,3.5,��
2018/02/01,01:20,0.327,0.198,0.327,0.315,0.294,0.166,0.101,�k,4.0,��
2018/02/01,01:30,0.328,0.200,0.327,0.314,0.295,0.167,0.100,�k�k��,7.0,��
2018/02/01,01:40,0.328,0.199,0.328,0.314,0.295,0.166,0.101,�k,7.4,��
2018/02/01,01:50,0.327,0.199,0.327,0.314,0.294,0.166,0.100,�k,8.7,��
2018/02/01,02:00,0.328,0.200,0.328,0.315,0.294,0.166,0.100,�k,9.0,��
2018/02/01,02:10,0.328,0.199,0.329,0.315,0.294,0.166,0.100,�k,8.4,��
2018/02/01,02:20,0.328,0.200,0.329,0.315,0.295,0.166,0.101,�k,7.3,��
2018/02/01,02:30,0.329,0.199,0.328,0.315,0.294,0.167,0.101,�k,6.3,��
2018/02/01,02:40,0.328,0.200,0.329,0.314,0.294,0.167,0.101,�k,7.3,��
2018/02/01,02:50,0.328,0.199,0.328,0.314,0.294,0.167,0.100,�k,6.6,��
2018/02/01,03:00,0.329,0.200,0.328,0.315,0.295,0.167,0.101,�k,7.0,��
2018/02/01,03:10,0.328,0.199,0.327,0.314,0.295,0.166,0.100,�k,7.3,��
2018/02/01,03:20,0.329,0.199,0.327,0.314,0.293,0.166,0.100,�k,8.4,��
2018/02/01,03:30,0.330,0.200,0.328,0.315,0.294,0.167,0.101,�k,9.8,��
2018/02/01,03:40,0.328,0.198,0.328,0.315,0.294,0.167,0.101,�k,9.2,��
2018/02/01,03:50,0.329,0.199,0.329,0.315,0.294,0.167,0.100,�k,8.5,��
2018/02/01,04:00,0.329,0.201,0.327,0.315,0.294,0.167,0.100,�k,7.9,��
2018/02/01,04:10,0.328,0.199,0.327,0.315,0.294,0.166,0.101,�k,7.4,��
2018/02/01,04:20,0.328,0.200,0.327,0.314,0.294,0.167,0.100,�k,8.6,��
2018/02/01,04:30,0.328,0.201,0.327,0.314,0.293,0.166,0.100,�k,8.8,��
2018/02/01,04:40,0.329,0.200,0.328,0.314,0.293,0.167,0.101,�k,7.4,��
2018/02/01,04:50,0.328,0.200,0.328,0.315,0.295,0.166,0.100,�k,7.0,��
2018/02/01,05:00,0.329,0.199,0.328,0.314,0.295,0.167,0.101,�k,7.4,��
2018/02/01,05:10,0.328,0.199,0.328,0.314,0.293,0.166,0.101,�k,7.4,��
2018/02/01,05:20,0.329,0.199,0.329,0.314,0.293,0.166,0.101,�k,7.5,��
2018/02/01,05:30,0.327,0.199,0.329,0.316,0.295,0.166,0.101,�k,8.1,��
2018/02/01,05:40,0.328,0.200,0.330,0.316,0.295,0.167,0.100,�k,8.5,��
2018/02/01,05:50,0.329,0.199,0.329,0.315,0.295,0.167,0.101,�k,5.8,��
2018/02/01,06:00,0.329,0.200,0.328,0.314,0.294,0.166,0.101,�k,7.6,��
2018/02/01,06:10,0.330,0.199,0.328,0.315,0.294,0.166,0.100,�k,7.9,��
2018/02/01,06:20,0.328,0.200,0.327,0.315,0.295,0.167,0.101,�k,6.0,��
2018/02/01,06:30,0.329,0.200,0.328,0.315,0.295,0.166,0.101,�k��,1.0,��
2018/02/01,06:40,0.328,0.200,0.329,0.315,0.294,0.166,0.101,�k,6.4,��
2018/02/01,06:50,0.328,0.199,0.328,0.314,0.295,0.167,0.100,�k,7.3,��
2018/02/01,07:00,0.329,0.200,0.327,0.315,0.295,0.166,0.100,�k,7.3,��
2018/02/01,07:10,0.329,0.200,0.329,0.315,0.295,0.166,0.100,�k,7.0,��
2018/02/01,07:20,0.328,0.200,0.329,0.315,0.295,0.167,0.101,�k,5.5,��
2018/02/01,07:30,0.329,0.201,0.329,0.315,0.295,0.166,0.100,�k,7.5,��
2018/02/01,07:40,0.329,0.200,0.328,0.314,0.293,0.167,0.101,�k,6.3,��
2018/02/01,07:50,0.328,0.200,0.328,0.314,0.293,0.167,0.101,�k,7.0,��
2018/02/01,08:00,0.329,0.199,0.328,0.316,0.296,0.166,0.101,�k,6.3,��
2018/02/01,08:10,0.329,0.201,0.328,0.315,0.293,0.167,0.100,�k,6.3,��
2018/02/01,08:20,0.328,0.200,0.329,0.314,0.294,0.166,0.101,�k,6.0,��
2018/02/01,08:30,0.328,0.198,0.328,0.315,0.293,0.166,0.101,�k,5.9,��
2018/02/01,08:40,0.328,0.199,0.328,0.315,0.294,0.166,0.101,�k�k��,4.2,��
2018/02/01,08:50,0.328,0.200,0.329,0.314,0.295,0.166,0.101,�k,4.4,��
2018/02/01,09:00,0.328,0.200,0.328,0.315,0.294,0.167,0.101,�k,2.9,��
2018/02/01,09:10,0.328,0.200,0.328,0.314,0.294,0.167,0.101,�k,4.3,��
2018/02/01,09:20,0.328,0.199,0.328,0.315,0.294,0.166,0.101,�k�k��,3.2,��
2018/02/01,09:30,0.328,0.198,0.328,0.313,0.294,0.166,0.100,�k,3.3,��
2018/02/01,09:40,0.328,0.198,0.327,0.313,0.294,0.166,0.100,�k�k��,2.9,��
2018/02/01,09:50,0.327,0.200,0.328,0.315,0.294,0.166,0.100,�k�k��,3.8,��
2018/02/01,10:00,0.328,0.199,0.329,0.314,0.295,0.166,0.100,�k�k��,4.6,��
2018/02/01,10:10,0.328,0.199,0.329,0.313,0.294,0.167,0.101,�k�k��,6.0,��
2018/02/01,10:20,0.327,0.200,0.328,0.313,0.294,0.167,0.100,�k�k��,5.9,��
2018/02/01,10:30,0.328,0.200,0.327,0.313,0.294,0.166,0.100,�k�k��,4.6,��
2018/02/01,10:40,0.327,0.200,0.328,0.314,0.295,0.166,0.100,�k��,4.8,��
2018/02/01,10:50,0.328,0.200,0.329,0.315,0.295,0.166,0.100,�k��,5.0,��
2018/02/01,11:00,0.326,0.199,0.329,0.315,0.294,0.166,0.100,�k��,4.6,��
2018/02/01,11:10,0.330,0.199,0.328,0.315,0.296,0.167,0.101,�k��,4.7,��
2018/02/01,11:20,0.328,0.199,0.328,0.314,0.295,0.167,0.100,�k��,3.7,��
2018/02/01,11:30,0.328,0.200,0.326,0.314,0.294,0.166,0.100,�k��,3.7,��
2018/02/01,11:40,0.328,0.199,0.328,0.314,0.295,0.166,0.100,�k�k��,3.2,��
2018/02/01,11:50,0.329,0.199,0.328,0.315,0.296,0.166,0.100,�k��,3.0,��
2018/02/01,12:00,0.329,0.199,0.328,0.314,0.295,0.167,0.100,�k,3.2,��
2018/02/01,12:10,0.328,0.201,0.328,0.312,0.296,0.166,0.101,�k��,3.6,��
2018/02/01,12:20,0.326,0.200,0.329,0.316,0.295,0.167,0.100,�k��,4.7,��
2018/02/01,12:30,0.331,0.198,0.328,0.316,0.294,0.166,0.101,�k��,4.4,��
2018/02/01,12:40,0.327,0.199,0.327,0.315,0.295,0.166,0.101,�k��,4.1,��
2018/02/01,12:50,0.328,0.199,0.329,0.315,0.296,0.167,0.101,�k�k��,3.5,��
2018/02/01,13:00,0.329,0.200,0.327,0.315,0.295,0.167,0.101,�k�k��,3.8,��
2018/02/01,13:10,0.328,0.200,0.327,0.314,0.296,0.166,0.099,�k��,3.8,��
2018/02/01,13:20,0.330,0.200,0.330,0.315,0.297,0.166,0.099,�k��,5.0,��
2018/02/01,13:30,0.329,0.199,0.329,0.316,0.295,0.167,0.100,�k�k��,5.4,��
2018/02/01,13:40,0.329,0.199,0.328,0.313,0.296,0.166,0.099,�k�k��,3.7,��
2018/02/01,13:50,0.329,0.200,0.328,0.315,0.296,0.167,0.101,�k��,5.0,��
2018/02/01,14:00,0.328,0.199,0.330,0.316,0.295,0.167,0.101,�k�k��,3.8,��
2018/02/01,14:10,0.329,0.199,0.328,0.314,0.296,0.166,0.100,�k��,3.2,��
2018/02/01,14:20,0.331,0.200,0.327,0.314,0.296,0.166,0.100,�k��,3.1,��
2018/02/01,14:30,0.328,0.199,0.327,0.315,0.295,0.167,0.101,�k��,3.8,��
2018/02/01,14:40,0.328,0.200,0.329,0.315,0.296,0.166,0.100,�k�k��,3.6,��
2018/02/01,14:50,0.328,0.200,0.329,0.314,0.296,0.167,0.100,�k�k��,3.4,��
2018/02/01,15:00,0.330,0.201,0.327,0.316,0.295,0.166,0.101,�k��,4.2,��
2018/02/01,15:10,0.329,0.201,0.329,0.316,0.296,0.166,0.101,�k�k��,5.6,��
2018/02/01,15:20,0.329,0.199,0.329,0.314,0.296,0.166,0.100,�k�k��,4.1,��
2018/02/01,15:30,0.329,0.201,0.328,0.315,0.298,0.167,0.100,�k��,4.2,��
2018/02/01,15:40,0.329,0.200,0.328,0.315,0.296,0.166,0.100,�k�k��,2.4,��
2018/02/01,15:50,0.330,0.201,0.328,0.315,0.296,0.167,0.100,�k,1.3,��
2018/02/01,16:00,0.328,0.200,0.330,0.316,0.296,0.167,0.101,�k,0.9,��
2018/02/01,16:10,0.329,0.200,0.330,0.315,0.296,0.167,0.101,�k,2.1,��
2018/02/01,16:20,0.331,0.200,0.328,0.316,0.296,0.166,0.100,�k,1.4,��
2018/02/01,16:30,0.330,0.201,0.329,0.315,0.297,0.167,0.101,�k,0.8,��
2018/02/01,16:40,0.329,0.200,0.328,0.315,0.299,0.166,0.100,�k,1.0,��
2018/02/01,16:50,0.328,0.201,0.330,0.315,0.299,0.166,0.100,�k�k��,3.0,��
2018/02/01,17:00,0.330,0.201,0.329,0.316,0.297,0.167,0.099,�k,3.6,��
2018/02/01,17:10,0.330,0.201,0.328,0.317,0.296,0.167,0.101,�k�k��,2.4,��
2018/02/01,17:20,0.330,0.200,0.328,0.315,0.295,0.166,0.100,�k,4.0,��
2018/02/01,17:30,0.330,0.201,0.329,0.315,0.297,0.166,0.101,�k,5.7,��
2018/02/01,17:40,0.330,0.200,0.328,0.314,0.297,0.166,0.101,�k,6.1,��
2018/02/01,17:50,0.331,0.200,0.330,0.315,0.296,0.166,0.101,�k,2.6,��
2018/02/01,18:00,0.328,0.200,0.329,0.316,0.296,0.167,0.100,�k,3.5,��
2018/02/01,18:10,0.329,0.200,0.329,0.315,0.297,0.167,0.100,-,CALM,��
2018/02/01,18:20,0.330,0.200,0.328,0.314,0.297,0.167,0.101,�k�k��,2.6,��
2018/02/01,18:30,0.330,0.200,0.329,0.315,0.296,0.166,0.100,�k�k��,3.7,��
2018/02/01,18:40,0.331,0.200,0.330,0.315,0.296,0.166,0.101,�k,3.8,��
2018/02/01,18:50,0.330,0.201,0.330,0.316,0.296,0.167,0.101,�k�k��,4.0,��
2018/02/01,19:00,0.331,0.200,0.328,0.315,0.298,0.166,0.100,�k,5.5,��
2018/02/01,19:10,0.330,0.200,0.328,0.314,0.297,0.167,0.101,�k,6.2,��
2018/02/01,19:20,0.332,0.200,0.328,0.315,0.295,0.167,0.101,�k,6.4,��
2018/02/01,19:30,0.329,0.201,0.329,0.315,0.296,0.165,0.099,�k,7.9,��
2018/02/01,19:40,0.331,0.199,0.329,0.315,0.296,0.166,0.101,�k�k��,8.1,��
2018/02/01,19:50,0.330,0.201,0.331,0.315,0.296,0.166,0.100,�k�k��,7.6,��
2018/02/01,20:00,0.330,0.200,0.328,0.316,0.296,0.167,0.100,�k,8.2,��
2018/02/01,20:10,0.330,0.200,0.330,0.316,0.296,0.166,0.100,�k,7.8,��
2018/02/01,20:20,0.330,0.199,0.329,0.315,0.297,0.165,0.100,�k�k��,7.3,��
2018/02/01,20:30,0.331,0.200,0.328,0.315,0.297,0.166,0.101,�k,6.8,��
2018/02/01,20:40,0.330,0.201,0.329,0.316,0.295,0.166,0.100,�k,8.4,��
2018/02/01,20:50,0.331,0.199,0.329,0.316,0.295,0.167,0.099,�k�k��,7.3,��
2018/02/01,21:00,0.331,0.200,0.329,0.315,0.296,0.167,0.100,�k,6.5,��
2018/02/01,21:10,0.330,0.200,0.329,0.315,0.297,0.167,0.101,�k,7.0,��
2018/02/01,21:20,0.330,0.201,0.329,0.316,0.297,0.167,0.100,�k�k��,7.9,��
2018/02/01,21:30,0.331,0.200,0.329,0.315,0.297,0.166,0.100,�k,7.7,��
2018/02/01,21:40,0.330,0.201,0.327,0.316,0.296,0.167,0.100,�k,7.0,��
2018/02/01,21:50,0.329,0.199,0.329,0.315,0.297,0.166,0.100,�k�k��,6.1,��
2018/02/01,22:00,0.331,0.200,0.329,0.317,0.296,0.167,0.100,�k�k��,6.5,��
2018/02/01,22:10,0.330,0.199,0.329,0.314,0.295,0.166,0.101,�k�k��,7.0,��
2018/02/01,22:20,0.330,0.200,0.330,0.317,0.297,0.165,0.101,�k,8.4,��
2018/02/01,22:30,0.331,0.200,0.330,0.315,0.296,0.167,0.100,�k,7.8,��
2018/02/01,22:40,0.330,0.200,0.328,0.315,0.296,0.166,0.101,�k,8.4,��
2018/02/01,22:50,0.330,0.201,0.329,0.315,0.297,0.167,0.100,�k,7.5,��
2018/02/01,23:00,0.330,0.200,0.330,0.316,0.296,0.166,0.100,�k,8.4,��
2018/02/01,23:10,0.330,0.200,0.329,0.316,0.297,0.166,0.101,�k,8.6,��
2018/02/01,23:20,0.330,0.200,0.328,0.315,0.298,0.166,0.101,�k,6.7,��
2018/02/01,23:30,0.330,0.200,0.329,0.315,0.296,0.167,0.100,�k,6.3,��
2018/02/01,23:40,0.331,0.201,0.330,0.315,0.296,0.167,0.101,�k,7.0,��
2018/02/01,23:50,0.331,0.200,0.330,0.314,0.296,0.166,0.100,�k,6.9,��
